User: anonymous   Login
Location: Bodest
(46.3000°N, 22.5667°E)
Time: 18:06:40
(UTC+00:00)
Language:

CZ-2C R/B - Orbit

View from above orbital plane
View from above orbital plane
View from above satellite
View from above satellite

Ground track
Ground track

The orbit data is extracted from the following two-line orbital elements,

1 31114U 07010B   22024.53963219  .00000039  00000-0  36701-4 0  9999
2 31114  98.2289 207.7028 0059637 358.9266   1.1775 14.19388328766147
Epoch (UTC): 24 January 2022 12:57:04
Eccentricity: 0.0059637
inclination: 98.2289°
perigee height: 784 km
apogee height: 870 km
right ascension of ascending node: 207.7028°
argument of perigee: 358.9266°
revolutions per day: 14.19388328
mean anomaly at epoch: 1.1775°
orbit number at epoch: 76614

The dashed part of the orbit path shows where the satellite is in the earth's shadow,  

DLR